CZ-6A DEB

Satellite information

Favourite Embed

Satellite Type and Status

DEBRISIN ORBIT

Key statistics

Satellite CZ-6A DEB at a glance.

Uptime

1129

Days in orbit

Revolutions

≈ 14.6

Per day

Orbit

SSO

Sun Synchronous Orbit

Inclination

98.9

Latest

Satellite identification and parameters

Extended collection of information and parameters for CZ-6A DEB.

Object identification

Identified? True

Debris? True

Object name: CZ-6A DEB

International designator: 2022-151EZ

Object number (NORAD): 54425

Object ID (CCSDS): 54425

Country: PEOPLES REPUBLIC OF CHINA (PRC)

Current information (Y/N): Y

RCS size: SMALL

Orbital parameters

Period: 98.632 minutes

Inclination: 98.8529 deg

SMA: 7071.409 km

Apoapsis: 782.061 km

Periapsis: 604.488 km

RAAN: 80.4931 deg

Eccentricy: 0.01255567

Argument of periapsis: 69.1837 deg

Mean anomaly: 292.2757 deg

Mean motion: 14.59969527 rev/day

Mean motion (dot): 0.00005313 rev/day2

B* drag term: 0.0010023135 1/REarth

Two-line elements (TLE)

Creation date: Dec. 14, 2025, 3:07 a.m.

Reference frame: TEME

Reference center: EARTH

Epoch: Dec. 13, 2025, 12:59 p.m. UTC

TLE line 0: 0 CZ-6A DEB

TLE line 1: 1 54425U 22151EZ 25347.54138270 .00005313 00000-0 10023-2 0 9992

TLE line 2: 2 54425 98.8529 80.4931 0125557 69.1837 292.2757 14.59969527163604

Live tracking on map

Real-time ground track for satellite CZ-6A DEB.

In-orbit conjunctions

A list of the most updated potential collisions computed for object CZ-6A DEB.

Target Orbit TCA Probability of collision Miss distance Type
CZ-6A DEB SSO 2024-11-12 10:36:41 0.0001127788 766.0 (m) DEBRIS
SL-8 R/B LEO 2024-10-03 01:47:35 0.0001831288 429.0 (m) ROCKET BODY

Associated space launch

Chinese satellite reported for atmospheric/ocean/environmental/spatial parameter research purposes, details TBD.

CZ-6A DEB was lifted into orbit during the mission ‘Long March 6A | Yunhai 3’, on board a Long March 6A space rocket.

The launch took place on Nov. 11, 2022, 10:52 p.m. from Launch Complex 9A.

For more information about the launch, click the button.

Launch to space Long March 6A | Yunhai 3
Long March 6A | Yunhai 3

Agency: N/A

Status: Launch Successful

Launch date: Nov. 11, 2022, 10:52 p.m. UTC

Rocket: Long March 6A

Launch pad: Launch Complex 9A

Location: Taiyuan Satellite Launch Center, People's Republic of China

...

Latest news about this satellite

There are no fresh news available about this satellite. Check back as we update our databases every day.


Newsletter sign-up

Weekly statistics, charts and insights to help you stay on top of the space industry.